Location: Alderney
(49.7170°N, 2.2000°W)
Time: 08:40:37
(UTC+00:00)

ISS - Visible Passes

Search period start: 23 February 2018 00:00
Search period end: 05 March 2018 00:00
Orbit: 402 x 407 km, 51.6° (Epoch: 23 February)

Date Brightness Start Highest point End Pass type
(mag) Time Alt. Az. Time Alt. Az. Time Alt. Az.
27 Feb -1.2 06:06:37 10° S 06:09:03 19° SE 06:11:28 10° E visible
28 Feb -0.9 05:15:41 10° SSE 05:16:59 12° SE 05:18:18 10° ESE visible
01 Mar -2.4 05:57:39 10° SW 06:00:41 35° SSE 06:03:42 10° E visible
02 Mar -1.7 05:06:45 15° S 05:08:31 23° SE 05:11:09 10° E visible
03 Mar -1.1 04:16:44 14° SE 04:16:44 14° SE 04:18:14 10° ESE visible
03 Mar -3.5 05:49:24 12° SW 05:52:22 62° SSE 05:55:37 10° ENE visible
04 Mar -2.9 04:59:15 33° S 05:00:06 41° SSE 05:03:13 10° E visible
